Girona, Spain

8:41 PM CEST on March 30, 2017 (GMT +0200)
Girona

Weather History for LEGE - October, 2012

Change the Weather History Date:

Saturday, October 13, 2012

  Actual Average Record
Temperature  
Mean Temperature 60 °F -  
Max Temperature 68 °F 67 °F 82 °F (2011)
Min Temperature 53 °F 47 °F 45 °F (2013)
Degree Days  
Heating Degree Days 4    
Growing Degree Days 10 (Base 50)    
Moisture  
Dew Point 53 °F    
Average Humidity 81    
Maximum Humidity 100    
Minimum Humidity 51    
Precipitation  
Precipitation 0.00 in 0.11 in - ()
Sea Level Pressure  
Sea Level Pressure 29.95 in    
Wind  
Wind Speed 2 mph ()    
Max Wind Speed 9 mph    
Max Gust Speed -    
Visibility 6.9 miles    
Events Rain    
Averages and records for this station are not official NWS values.
T = Trace of Precipitation, MM = Missing Value Source: Averaged Metar Reports

Daily Weather History Graph

Daily Weather History Graph

Search for Another Location

Airport or City:

Trip Planner

Search our weather history database for the weather conditions in past years. The results will help you decide how hot, cold, wet, or windy it might be!

Date:

Astronomy

Oct. 13, 2012 Rise Set
Actual Time 7:59 AM CEST 7:10 PM CEST
Civil Twilight 7:31 AM CEST 7:38 PM CEST
Nautical Twilight 6:58 AM CEST 8:10 PM CEST
Astronomical Twilight 6:26 AM CEST 8:42 PM CEST
Moon 5:30 AM CEST (10/13) 5:46 PM CEST (10/13)
Length of Visible Light 12h 06m
Length of Day
11h 10m
Waning Crescent, 6% of the Moon is Illuminated
Oct 13
Waning Crescent
Oct 15
New
Oct 22
First Quarter
Oct 29
Full
Nov 7
Last Quarter

Hourly Weather History & Observations

Time (CEST) Temp. Dew Point Humidity Pressure Visibility Wind Dir Wind Speed Gust Speed Precip Events Conditions
12:30 AM 55.4 °F 53.6 °F 94% 30.01 in 6.2 mi Variable 2.3 mph - N/A   Scattered Clouds
1:00 AM 53.6 °F 53.6 °F 100% 30.01 in 6.2 mi Calm Calm - N/A   Scattered Clouds
1:30 AM 53.6 °F 53.6 °F 100% 29.98 in 6.2 mi Calm Calm - N/A   Scattered Clouds
2:00 AM 55 °F 53 °F 91% 29.97 in 11 mi WNW 1.2 mph - -   Partly Cloudy
2:00 AM 53.6 °F 53.6 °F 100% 29.98 in 6.2 mi WNW 1.2 mph - N/A   Scattered Clouds
2:30 AM 55.4 °F 55.4 °F 100% 29.98 in 6.2 mi Calm Calm - N/A   Scattered Clouds
3:00 AM 55.4 °F 55.4 °F 100% 29.98 in 6.2 mi Calm Calm - N/A   Scattered Clouds
3:30 AM 55.4 °F 55.4 °F 100% 29.98 in 6.2 mi Calm Calm - N/A   Scattered Clouds
4:00 AM 55.4 °F 55.4 °F 100% 29.95 in 6.2 mi NNE 1.2 mph - N/A   Scattered Clouds
5:00 AM 55.4 °F 55.4 °F 100% 29.95 in 6.2 mi Calm Calm - N/A   Mostly Cloudy
5:30 AM 55.4 °F 55.4 °F 100% 29.95 in 6.2 mi Calm Calm - N/A   Mostly Cloudy
6:00 AM 55.4 °F 55.4 °F 100% 29.95 in 6.2 mi Calm Calm - N/A   Mostly Cloudy
7:00 AM 53.6 °F 51.8 °F 94% 29.95 in 6.2 mi NNW 3.5 mph - N/A   Scattered Clouds
7:30 AM 53.6 °F 51.8 °F 94% 29.95 in 6.2 mi Variable 1.2 mph - N/A   Scattered Clouds
8:00 AM 55 °F 52 °F 87% 29.95 in 11 mi NW 2.3 mph - -   Overcast
8:00 AM 53.6 °F 53.6 °F 100% 29.95 in 6.2 mi WNW 2.3 mph - N/A   Mostly Cloudy
8:30 AM 53.6 °F 53.6 °F 100% 29.95 in 6.2 mi Calm Calm - N/A   Mostly Cloudy
9:00 AM 55.4 °F 53.6 °F 94% 29.95 in 6.2 mi Variable 1.2 mph - N/A   Mostly Cloudy
9:30 AM 57.2 °F 55.4 °F 94% 29.95 in 6.2 mi Calm Calm - N/A   Mostly Cloudy
10:30 AM 59.0 °F 53.6 °F 82% 29.98 in 6.2 mi Variable 1.2 mph - N/A   Mostly Cloudy
11:00 AM 59.0 °F 51.8 °F 77% 29.98 in 6.2 mi NE 1.2 mph - N/A   Mostly Cloudy
12:30 PM 64.4 °F 51.8 °F 64% 29.95 in 6.2 mi SSW 2.3 mph - N/A   Mostly Cloudy
1:00 PM 64.4 °F 51.8 °F 64% 29.95 in 6.2 mi SSW 3.5 mph - N/A   Mostly Cloudy
1:30 PM 66.2 °F 51.8 °F 60% 29.92 in 6.2 mi South 6.9 mph - N/A   Mostly Cloudy
2:00 PM 68 °F 54 °F 51% 29.90 in 19 mi South 9.2 mph - -   Partly Cloudy
2:00 PM 66.2 °F 53.6 °F 64% 29.92 in 6.2 mi SSW 6.9 mph - N/A   Scattered Clouds
2:30 PM 66.2 °F 53.6 °F 64% 29.92 in 6.2 mi South 8.1 mph - N/A   Mostly Cloudy
3:00 PM 66.2 °F 51.8 °F 60% 29.92 in 6.2 mi SSE 6.9 mph - N/A   Mostly Cloudy
3:30 PM 66.2 °F 53.6 °F 64% 29.92 in 6.2 mi South 6.9 mph - N/A   Mostly Cloudy
4:00 PM 66.2 °F 55.4 °F 68% 29.92 in 6.2 mi SE 3.5 mph - N/A   Mostly Cloudy
5:00 PM 64.4 °F 53.6 °F 68% 29.92 in 6.2 mi SE 5.8 mph - N/A   Mostly Cloudy
5:30 PM 64.4 °F 51.8 °F 64% 29.92 in 6.2 mi ESE 5.8 mph - N/A   Mostly Cloudy
6:00 PM 62.6 °F 51.8 °F 68% 29.92 in 6.2 mi East 6.9 mph - N/A   Mostly Cloudy
6:30 PM 62.6 °F 51.8 °F 68% 29.92 in 6.2 mi ESE 4.6 mph - N/A   Mostly Cloudy
7:00 PM 62.6 °F 51.8 °F 68% 29.92 in 6.2 mi ESE 3.5 mph - N/A   Mostly Cloudy
7:20 PM 62.6 °F 53.6 °F 72% 29.95 in 6.2 mi Variable 2.3 mph - N/A Rain Light Rain
7:30 PM 62.6 °F 53.6 °F 72% 29.95 in 6.2 mi East 2.3 mph - N/A   Mostly Cloudy
8:00 PM 63 °F 54 °F 64% 29.94 in 16 mi SE 2.3 mph - -   Mostly Cloudy
8:00 PM 62.6 °F 53.6 °F 72% 29.95 in 6.2 mi Variable 1.2 mph - N/A   Mostly Cloudy
8:30 PM 60.8 °F 53.6 °F 77% 29.95 in 6.2 mi Variable 1.2 mph - N/A   Mostly Cloudy
9:00 PM 60.8 °F 53.6 °F 77% 29.95 in 6.2 mi Variable 2.3 mph - N/A   Mostly Cloudy
9:30 PM 59.0 °F 51.8 °F 77% 29.95 in 6.2 mi Variable 1.2 mph - N/A   Scattered Clouds
10:00 PM 59.0 °F 53.6 °F 82% 29.95 in 6.2 mi Variable 2.3 mph - N/A   Scattered Clouds
10:30 PM 59.0 °F 53.6 °F 82% 29.95 in 6.2 mi Variable 2.3 mph - N/A   Mostly Cloudy
11:00 PM 59.0 °F 53.6 °F 82% 29.95 in 6.2 mi Variable 1.2 mph - N/A   Mostly Cloudy